User: anonymous   Login
Location: *
(44.3925°N, 5.4708°E)
Time: 01:51:36
(UTC+00:00)
Language:

Cosmos 407 Rocket - Orbit

View from above orbital plane
View from above orbital plane
View from above satellite
View from above satellite

Ground track
Ground track

The orbit data is extracted from the following two-line orbital elements,

1  5175U 71035B   19314.82062547  .00000013  00000-0  13025-4 0  9995
2  5175  74.0507  36.0498 0029577  25.4995 334.7610 14.37956807540943
Epoch (UTC): 10 November 2019 19:41:42
Eccentricity: 0.0029577
inclination: 74.0507°
perigee height: 744 km
apogee height: 786 km
right ascension of ascending node: 36.0498°
argument of perigee: 25.4995°
revolutions per day: 14.37956807
mean anomaly at epoch: 334.7610°
orbit number at epoch: 54094

The dashed part of the orbit path shows where the satellite is in the earth's shadow,  

DLR